User: anonymous   Login
Location: Vancouver
(49.2500°N, 123.1330°W)
Time: 12:13:15
(UTC-07:00)
Language:

BREEZE-M DEB (TANK) - Orbit

View from above orbital plane
View from above orbital plane
View from above satellite
View from above satellite

Ground track
Ground track

The orbit data is extracted from the following two-line orbital elements,

1 27821U 03024B   15244.19964859  .00002708  00000-0  22174-3 0  9992
2 27821  49.5816 139.5577 4994701 253.1395 332.0049  5.67930227242925
Epoch (UTC): 01 September 2015 04:47:29
Eccentricity: 0.4994701
inclination: 49.5816°
perigee height: 264 km
apogee height: 13520 km
right ascension of ascending node: 139.5577°
argument of perigee: 253.1395°
revolutions per day: 5.67930227
mean anomaly at epoch: 332.0049°
orbit number at epoch: 24292

The dashed part of the orbit path shows where the satellite is in the earth's shadow,  

DLR